Regional Weather Roundup
Issued by NWS

Home | Current Version | Previous Version | Text Only | Print | Product List | Glossary Off
Versions: 1 2 3 4 5 6 7 8 9 10 11 12 13 14 15 16 17 18 19 20 21 22 23 24 25 26 27 28 29 30 31 32 33 34 35 36 37 38 39 40 41 42 43 44 45 46 47 48 49 50

000
ASUS43 KDMX 202101
RWRIA

WEATHER ROUNDUP FOR IOWA
NATIONAL WEATHER SERVICE DES MOINES IA
400 PM CDT SUN MAY 20 2018

NOTE: "FAIR" INDICATES FEW OR NO CLOUDS BELOW 12,000 FEET WITH NO
SIGNIFICANT WEATHER AND/OR OBSTRUCTIONS TO VISIBILITY.

* - THESE STATIONS ARE NOT NWS STATIONS...THUS NOT UNDER NWS
QUALITY CONTROL.  THEY ALSO DO NOT REPORT WEATHER SUCH
AS PRECIPITATION OR FOG.

IAZ001>003-012>014-020>022-031>034-043>046-202200-
   NORTHWEST IOWA

CITY           SKY/WX    TMP DP  RH WIND       PRES   REMARKS
CARROLL *      CLOUDY   N/A N/A N/A NE13      30.09F
CHEROKEE *     CLOUDY    60  54  80 NE7       30.11F
DENISON *      CLOUDY    57  55  94 NE9       30.11F
LE MARS *      CLOUDY    57  50  77 N9        30.13F
ORANGE CITY *  PTSUNNY   61  52  72 E7        30.14F
SHELDON *      CLOUDY    59  52  77 E10       30.12F
SIOUX CITY     CLOUDY    56  49  77 N8        30.12F
SPENCER        CLOUDY    61  51  70 E9        30.14F
STORM LAKE *   PTSUNNY   57  52  82 NE15      30.11F
$$

IAZ055>058-069>071-079>083-090>094-202200-
   SOUTHWEST IOWA

CITY           SKY/WX    TMP DP  RH WIND       PRES   REMARKS
ATLANTIC *     CLOUDY    68  59  73 E8G16     30.06S
AUDUBON *      CLOUDY    64  57  77 NE9       30.09F
CLARINDA *     CLOUDY    70  61  73 E5        30.08F
COUNCIL BLFS * CLOUDY    59  59 100 N10       30.08S
CRESTON *      CLOUDY    64  59  82 E10       30.09S
HARLAN  *      PTSUNNY   61  59  94 N12       30.11F
LAMONI         CLOUDY    69  62  78 CALM      30.07S
RED OAK *      CLOUDY    68  59  73 E9        30.06S
SHENANDOAH *   CLOUDY    70  59  68 N8        30.05F
$$

IAZ047>049-059>061-072>074-084-202200-
   CENTRAL IOWA

CITY           SKY/WX    TMP DP  RH WIND       PRES   REMARKS
AMES           CLOUDY    60  57  89 NE9       30.10F
ANKENY *       CLOUDY    63  59  88 NE8       30.10S
BOONE *        CLOUDY    61  57  88 NE12      30.10F
CHARITON *     CLOUDY    68  63  83 E6        30.07S
DES MOINES     CLOUDY    68  59  73 NE14      30.07F
GRINNELL*      CLOUDY    64  57  77 NE13      30.10S
KNOXVILLE *    PTSUNNY   70  61  73 NE8G14    30.05F
MARSHALLTOWN   CLOUDY    60  58  92 E14       30.10F
NEWTON *       CLOUDY    64  59  82 E15       30.09S HAZE
PELLA *        CLOUDY    71  61  70 NE7       30.07F
PERRY *        CLOUDY    63  57  81 NE10      30.09S
$$

IAZ004>006-015-016-023>025-035-036-202200-
   NORTH CENTRAL IOWA

CITY           SKY/WX    TMP DP  RH WIND       PRES   REMARKS
ALGONA *       CLOUDY    57  52  82 E13       30.14F
CLARION *      CLOUDY    59  52  77 E13       30.13S
ESTHERVILLE    CLOUDY    59  51  75 E12       30.14F
FORT DODGE *   CLOUDY    58  54  86 NE9       30.12F
MASON CITY     CLOUDY    57  51  80 NE15      30.16F
FOREST CITY *  CLOUDY    57  52  82 NE9       30.15F
IOWA FALLS *   CLOUDY    61  56  83 E13       30.13F
$$

IAZ007>011-017>019-026>030-037>042-050>054-066-202200-
   NORTHEAST IOWA

CITY           SKY/WX    TMP DP  RH WIND       PRES   REMARKS
CEDAR RAPIDS   CLOUDY    57  54  89 NE14      30.10F
CHARLES CITY * CLOUDY    61  54  77 NE14      30.15F
CLINTON *      PTSUNNY   61  55  81 NE18      30.11F
DECORAH *      CLOUDY    55  50  82 E10       30.16F
DUBUQUE        CLOUDY    54  51  90 E10       30.15F
MONTICELLO *   PTSUNNY   57  55  94 NE9       30.13F
OELWEIN *      CLOUDY    57  54  88 E13G18    30.14F
WATERLOO       CLOUDY    58  54  86 E14       30.12F
$$

IAZ064-065-067-068-078-202200-
   EAST CENTRAL IOWA

CITY           SKY/WX    TMP DP  RH WIND       PRES   REMARKS
DAVENPORT      FAIR      64  53  67 E17       30.10F
IOWA CITY      FAIR      64  55  72 NE9       30.10F
MUSCATINE *    FAIR      68  55  64 NE13      30.08R
QUAD CITIES    FAIR      67  55  65 E21G26    30.05F
$$

IAZ062-063-075>077-085>089-095>099-202200-
   SOUTHEAST IOWA

CITY           SKY/WX    TMP DP  RH WIND       PRES   REMARKS
BURLINGTON     CLOUDY    71  65  81 NE7       30.06S
FAIRFIELD *    CLOUDY    72  64  78 E13       30.05F
FORT MADISON * CLOUDY    73  66  78 N3        30.06F
KEOKUK *       CLOUDY    72  66  83 E5        30.03F
OSKALOOSA *    PTSUNNY   68  62  79 NE10      30.07S HAZE
CENTERVILLE *    N/A     72  68  88 CALM      30.07F
OTTUMWA        CLOUDY    72  63  73 NE12      30.06S
WASHINGTON *   CLOUDY    72  61  68 NE9G17    30.08R
$$

ABBREVIATIONS USED IN REMARKS
   TC - TEMPERATURES IN CELSIUS
  WCI - WIND CHILL INDEX
   HX - HEAT INDEX
  VSB - VISIBILITY
$$




USA.gov is the U.S. government's official web portal to all federal, state and local government web resources and services.